Leesburg, VA

6:24 AM EST on December 08, 2019 (GMT -0500)
Leesburg Executive

Weather History for KJYO - April, 2019

Change the Weather History Date:

Thursday, April 18, 2019

  Actual Average (KIAD) Record (KIAD)
Temperature  
Mean Temperature 66 °F -  
Max Temperature 80 °F 67 °F 90 °F (1976)
Min Temperature 53 °F 43 °F 29 °F (2018)
Cooling Degree Days 2    
Growing Degree Days 16 (Base 50)    
Moisture  
Dew Point 54 °F    
Average Humidity 69    
Maximum Humidity 94    
Minimum Humidity 39    
Precipitation  
Precipitation 0.00 in - - ()
Sea Level Pressure  
Sea Level Pressure 29.95 in    
Wind  
Wind Speed 7 mph (SSE)    
Max Wind Speed 22 mph    
Max Gust Speed 31 mph    
Visibility 10 miles    
Events      
Averages and records for this station are not official NWS values.
T = Trace of Precipitation, MM = Missing Value Source: NWS Daily Summary

Daily Weather History Graph

Daily Weather History Graph

Search for Another Location

Airport or City:

Astronomy

Apr. 18, 2019 Rise Set
Actual Time 6:29 AM EDT 7:50 PM EDT
Civil Twilight 6:01 AM EDT 8:18 PM EDT
Nautical Twilight 5:28 AM EDT 8:51 PM EDT
Astronomical Twilight 4:53 AM EDT 9:26 PM EDT
Moon 7:04 PM EDT (4/18) 6:20 AM EDT (4/18)
Length of Visible Light 14h 16m
Length of Day
13h 20m
Waxing Gibbous, 99% of the Moon is Illuminated
Apr 18
Waxing Gibbous
Apr 19
Full
Apr 26
Last Quarter
May 4
New
May 11
First Quarter

Hourly Weather History & Observations

Time (EDT) Temp. Heat Index Dew Point Humidity Pressure Visibility Wind Dir Wind Speed Gust Speed Precip Events Conditions
12:15 AM 55.4 °F - 46.4 °F 72% 30.11 in 10.0 mi East 4.6 mph - N/A   Clear
12:35 AM 55.4 °F - 48.2 °F 77% 30.12 in 10.0 mi East 5.8 mph - N/A   Clear
12:55 AM 53.6 °F - 48.2 °F 82% 30.11 in 10.0 mi East 6.9 mph - N/A   Clear
1:15 AM 53.6 °F - 50.0 °F 88% 30.10 in 10.0 mi ESE 8.1 mph - N/A   Clear
1:35 AM 53.6 °F - 50.0 °F 88% 30.10 in 10.0 mi ESE 5.8 mph - N/A   Clear
1:55 AM 53.6 °F - 50.0 °F 88% 30.10 in 10.0 mi ESE 5.8 mph - N/A   Mostly Cloudy
2:15 AM 53.6 °F - 50.0 °F 88% 30.09 in 10.0 mi ESE 4.6 mph - N/A   Overcast
2:35 AM 53.6 °F - 50.0 °F 88% 30.08 in 10.0 mi ESE 5.8 mph - N/A   Overcast
2:55 AM 53.6 °F - 50.0 °F 88% 30.08 in 10.0 mi ESE 6.9 mph - N/A   Overcast
3:15 AM 53.6 °F - 50.0 °F 88% 30.07 in 10.0 mi East 4.6 mph - N/A   Overcast
3:35 AM 53.6 °F - 50.0 °F 88% 30.07 in 10.0 mi ESE 4.6 mph - N/A   Overcast
3:55 AM 53.6 °F - 50.0 °F 88% 30.06 in 10.0 mi East 4.6 mph - N/A   Overcast
4:15 AM 53.6 °F - 51.8 °F 94% 30.06 in 10.0 mi ESE 5.8 mph - N/A   Overcast
4:35 AM 53.6 °F - 51.8 °F 94% 30.05 in 10.0 mi ESE 6.9 mph - N/A   Overcast
4:55 AM 53.6 °F - 51.8 °F 94% 30.04 in 10.0 mi ESE 5.8 mph - N/A   Overcast
5:15 AM 53.6 °F - 51.8 °F 94% 30.04 in 10.0 mi ENE 4.6 mph - N/A   Overcast
5:35 AM 53.6 °F - 51.8 °F 94% 30.04 in 10.0 mi East 3.5 mph - N/A   Overcast
5:55 AM 53.6 °F - 51.8 °F 94% 30.04 in 10.0 mi ENE 4.6 mph - N/A   Overcast
6:15 AM 53.6 °F - 51.8 °F 94% 30.05 in 10.0 mi Calm Calm - N/A   Overcast
6:35 AM 53.6 °F - 51.8 °F 94% 30.04 in 10.0 mi Calm Calm - N/A   Overcast
6:55 AM 53.6 °F - 51.8 °F 94% 30.05 in 10.0 mi Calm Calm - N/A   Overcast
7:15 AM 53.6 °F - 51.8 °F 94% 30.05 in 10.0 mi Calm Calm - N/A   Overcast
7:35 AM 53.6 °F - 51.8 °F 94% 30.05 in 10.0 mi East 5.8 mph - N/A   Overcast
7:55 AM 53.6 °F - 51.8 °F 94% 30.05 in 10.0 mi Calm Calm - N/A   Overcast
8:35 AM 55.4 °F - 53.6 °F 94% 30.04 in 10.0 mi Calm Calm - N/A   Overcast
8:55 AM 55.4 °F - 53.6 °F 94% 30.04 in 10.0 mi Calm Calm - N/A   Overcast
9:15 AM 55.4 °F - 53.6 °F 94% 30.03 in 10.0 mi SE 3.5 mph - N/A   Overcast
9:35 AM 57.2 °F - 53.6 °F 88% 30.02 in 10.0 mi Calm Calm - N/A   Overcast
9:55 AM 57.2 °F - 53.6 °F 88% 30.02 in 10.0 mi Calm Calm - N/A   Overcast
10:15 AM 59.0 °F - 53.6 °F 82% 30.03 in 10.0 mi South 4.6 mph - N/A   Overcast
10:35 AM 60.8 °F - 53.6 °F 77% 30.02 in 10.0 mi SW 4.6 mph - N/A   Overcast
10:55 AM 60.8 °F - 53.6 °F 77% 30.02 in 10.0 mi South 5.8 mph - N/A   Mostly Cloudy
11:15 AM 62.6 °F - 55.4 °F 77% 30.02 in 10.0 mi SSW 4.6 mph - N/A   Mostly Cloudy
11:35 AM 62.6 °F - 55.4 °F 77% 30.00 in 10.0 mi South 3.5 mph - N/A   Scattered Clouds
11:55 AM 64.4 °F - 55.4 °F 73% 29.99 in 10.0 mi South 3.5 mph - N/A   Clear
12:15 PM 66.2 °F - 55.4 °F 68% 29.98 in 10.0 mi SSE 5.8 mph - N/A   Clear
12:35 PM 68.0 °F - 57.2 °F 68% 29.98 in 10.0 mi South 11.5 mph - N/A   Clear
12:55 PM 69.8 °F - 57.2 °F 64% 29.97 in 10.0 mi SW 5.8 mph - N/A   Clear
1:15 PM 69.8 °F - 57.2 °F 64% 29.97 in 10.0 mi South 4.6 mph - N/A   Clear
1:35 PM 71.6 °F - 57.2 °F 60% 29.95 in 10.0 mi South 8.1 mph - N/A   Clear
1:55 PM 71.6 °F - 59.0 °F 64% 29.93 in 10.0 mi SSE 10.4 mph - N/A   Mostly Cloudy
2:15 PM 71.6 °F - 57.2 °F 60% 29.93 in 10.0 mi South 12.7 mph 16.1 mph N/A   Mostly Cloudy
2:35 PM 71.6 °F - 55.4 °F 57% 29.94 in 10.0 mi SSW 12.7 mph 17.3 mph N/A   Scattered Clouds
2:55 PM 71.6 °F - 57.2 °F 60% 29.93 in 10.0 mi SSW 10.4 mph 17.3 mph N/A   Clear
3:15 PM 73.4 °F - 57.2 °F 57% 29.90 in 10.0 mi SSW 9.2 mph - N/A   Clear
3:30 PM 73.4 °F - 57.2 °F 57% 29.89 in 10.0 mi South 10.4 mph - N/A   Clear
3:55 PM 77.0 °F - 59.0 °F 54% 29.88 in 10.0 mi South 11.5 mph 18.4 mph N/A   Clear
4:15 PM 77.0 °F - 59.0 °F 54% 29.87 in 10.0 mi South 13.8 mph 17.3 mph N/A   Clear
4:35 PM 78.8 °F - 55.4 °F 44% 29.86 in 10.0 mi South 17.3 mph 21.9 mph N/A   Clear
4:55 PM 78.8 °F - 57.2 °F 47% 29.85 in 10.0 mi SSW 8.1 mph - N/A   Clear
5:15 PM 78.8 °F - 57.2 °F 47% 29.84 in 10.0 mi South 8.1 mph - N/A   Clear
5:35 PM 80.6 °F 80.8 °F 57.2 °F 45% 29.84 in 10.0 mi South 8.1 mph - N/A   Clear
5:55 PM 80.6 °F 80.8 °F 57.2 °F 45% 29.82 in 10.0 mi SSW 10.4 mph 16.1 mph N/A   Clear
6:15 PM 80.6 °F 80.8 °F 57.2 °F 45% 29.82 in 10.0 mi South 13.8 mph 17.3 mph N/A   Clear
6:35 PM 80.6 °F 81.1 °F 59.0 °F 48% 29.80 in 10.0 mi South 17.3 mph 20.7 mph N/A   Clear
6:55 PM 80.6 °F 81.1 °F 59.0 °F 48% 29.79 in 10.0 mi South 15.0 mph 19.6 mph N/A   Clear
7:15 PM 80.6 °F 81.1 °F 59.0 °F 48% 29.79 in 10.0 mi South 12.7 mph 18.4 mph N/A   Clear
7:35 PM 80.6 °F 80.8 °F 57.2 °F 45% 29.78 in 10.0 mi South 13.8 mph 21.9 mph N/A   Clear
7:55 PM 78.8 °F - 55.4 °F 44% 29.79 in 10.0 mi South 15.0 mph 23.0 mph N/A   Clear
8:15 PM 78.8 °F - 53.6 °F 42% 29.79 in 10.0 mi South 15.0 mph 20.7 mph N/A   Clear
8:35 PM 78.8 °F - 53.6 °F 42% 29.80 in 10.0 mi South 17.3 mph 24.2 mph N/A   Clear
8:55 PM 77.0 °F - 51.8 °F 41% 29.81 in 10.0 mi SSW 21.9 mph 31.1 mph N/A   Clear
9:15 PM 77.0 °F - 50.0 °F 39% 29.82 in 10.0 mi South 19.6 mph 29.9 mph N/A   Clear
9:35 PM 77.0 °F - 50.0 °F 39% 29.83 in 10.0 mi South 21.9 mph 27.6 mph N/A   Clear
9:55 PM 75.2 °F - 50.0 °F 41% 29.83 in 10.0 mi South 15.0 mph 24.2 mph N/A   Clear
10:15 PM 75.2 °F - 51.8 °F 44% 29.82 in 10.0 mi South 12.7 mph 20.7 mph N/A   Clear
10:35 PM 73.4 °F - 51.8 °F 47% 29.82 in 10.0 mi South 16.1 mph 23.0 mph N/A   Clear
10:55 PM 73.4 °F - 51.8 °F 47% 29.82 in 10.0 mi South 12.7 mph 23.0 mph N/A   Clear
11:15 PM 73.4 °F - 53.6 °F 50% 29.82 in 10.0 mi South 11.5 mph 20.7 mph N/A   Clear
11:35 PM 73.4 °F - 53.6 °F 50% 29.82 in 10.0 mi South 9.2 mph 18.4 mph N/A   Clear
11:55 PM 71.6 °F - 55.4 °F 57% 29.81 in 10.0 mi South 12.7 mph 18.4 mph N/A   Clear